STARLINK-3907 (52501 NORAD) Tracking and Keplerian Element Data

This shows tracking and keplerian element data for the satellite.

Feedback or suggestion? Click here.




ElementValue
Catalog52501
NameSTARLINK-3907
Epoch Orbit130
Epoch Day167.08334491
Epoch Year2022
RAAN64.9662
Inclination53.2186
Eccentricity0.0001882
Argument of Perigee34.4555
Mean Anonmoly122.067
Mean Motion15.73197219
Decay Rate0.00084395
L11 52501U 22049BC 22167.08334491 .00084395 00000+0 59977-3 0 9998
L22 52501 53.2186 64.9662 0001882 34.4555 122.0670 15.73197219 1305

Live tracking and technical data element details for STARLINK-3907 (NORAD 52501). STARLINK-3907 can be tracked NOW for your location showing map with azimuth and elevation plus other details from your city location.

Track the satellite on the map from your city or location and see movement details for azimuth, elevation, latitude, longitude, range, height, and movement on the map or in text.







IsCatalogInMostPopularTable: catalog: 52501, numindb: 1
Update: records affected: 1



GetName: 52501 STARLINK-3907

Hit Count: updated at: Mon, 27 Jun 2022 04:48:16 GMT